Terminal Aerodrome Forecast
Issued by NWS Greer, SC

Home | Current Version | Previous Version | Text Only | Print | Product List | Glossary On
Versions: 1 2 3 4 5 6 7 8 9 10 11 12 13 14 15 16 17 18 19 20 21 22 23 24 25 26 27 28 29 30 31 32 33 34 35 36 37 38 39 40 41 42 43 44 45 46
000
FTUS42 KGSP 191502 AAA
TAFCLT
TAF AMD
KCLT 191502Z 1915/2012 01006KT P6SM FEW250
     FM191900 02003KT P6SM BKN250
     FM200100 11003KT P6SM FEW070 OVC150
     FM201000 06003KT P6SM -RA BKN070=

USA.gov is the U.S. government's official web portal to all federal, state and local government web resources and services.